Flag for U.S.A. Weather past 2 weeks in Irvine, California, U.S.A.

Now
78 °F

Sunny.


Feels Like: 80 °F
Forecast: 65 / 89 °F
Wind: 5 mph from Southwest

Location: John Wayne Airport-Orange County Airport

Current Time: Sep 23, 2014 at 8:07:25 PM

Latest Report: Sep 23, 2014 at 6:53 PM


Visibility: 10 mi

Pressure: 29.87 "Hg

Humidity: 56%

Dew point: 61 °F

Location of IrvineLocation

Historic Weather in Irvine — Graph

°F

Irvine temperature yesterday

Maximum temperature yesterday: 81 °F (at 2:53 PM)
Minimum temperature yesterday: 67 °F (at 6:53 AM)
Average temperature yesterday: 74 °F

Past Weeks' High & Low Weather Summary

 TemperatureHumidityPressure
High99 °F (Sep 16, 4:53 PM)88% (Sep 23, 6:00 AM)29.99 "Hg (Sep 23, 6:00 AM)
Low66 °F (Sep 23, 6:00 AM)24% (Sep 16, 3:53 PM)29.67 "Hg (Sep 14, 4:53 PM)
Average79 °F59%29.83 "Hg
* Reported Sep 8 6:53 PM — Sep 23 6:53 PM, Irvine, Weather by CustomWeather, © 2014

Note: Actual official high and low records may vary slightly from our data, if they occured in-between our weather recording intervals... More about our weather records

Advertising

Irvine weather history for previous 24 hours

 ConditionsComfort  
Time TempWeatherWind HumidityBarometerVisibility
6:53 PM
Sep 23
78 °FSunny.5 mph56%29.87 "Hg10 mi
5:53 PM80 °FSunny.7 mph47%29.87 "Hg10 mi
4:53 PM82 °FSunny.7 mph46%29.87 "Hg10 mi
3:53 PM82 °FSunny.8 mph53%29.88 "Hg10 mi
2:53 PM82 °FSunny.9 mph53%29.90 "Hg10 mi
1:53 PM83 °FSunny.8 mph50%29.92 "Hg10 mi
12:53 PM83 °FPassing clouds.7 mph51%29.94 "Hg7 mi
11:53 AM84 °FHaze.No wind46%29.95 "Hg6 mi
10:53 AM79 °FHaze.No wind54%29.97 "Hg6 mi
9:53 AM74 °FHaze.No wind69%29.98 "Hg3 mi
8:53 AM69 °FLow clouds.No wind81%29.98 "Hg1 mi
7:53 AM67 °FFog.No wind87%29.96 "Hg1 mi
6:53 AM67 °FFog.No wind87%29.95 "Hg1 mi
6:00 AM66 °FPartly cloudy.No wind88%29.95 "Hg1 mi
4:53 AM68 °FClear.No wind78%29.93 "Hg10 mi
3:53 AM69 °FClear.No wind76%29.93 "Hg10 mi
2:53 AM69 °FClear.3 mph76%29.94 "Hg10 mi
1:53 AM70 °FClear.No wind79%29.94 "Hg10 mi
12:53 AM71 °FClear.No wind73%29.95 "Hg10 mi
11:53 PM
Sep 22
71 °FClear.No wind76%29.94 "Hg10 mi
10:53 PM72 °FPassing clouds.No wind73%29.94 "Hg10 mi
9:53 PM73 °FPassing clouds.No wind74%29.93 "Hg10 mi
8:53 PM73 °FPassing clouds.3 mph71%29.92 "Hg10 mi
Weather by CustomWeather, © 2014

See weather overviewHow to use our weather pages